QPF
0.00 0.00 0.00 0.00 0.00 0.00 0.00 0.00 0.00 0.00 0.00 0.00 0.00 0.00 0.00 0.00 0.00 0.00 0.00 0.00 0.00 0.00 0.00 0.00 0.00 0.00 0.00 0.00 0.00 0.00 0.00 0.00 0.00 0.00 0.00 0.00 0.00 0.00 0.00 0.00 0.00 0.00 0.00 0.00
0.00 0.00 0.00 0.00 0.00 0.00 0.00 0.00 0.00 0.00 0.00 0.00 0.00 0.00 0.00 0.00 0.00 0.00 0.00 0.00 0.00 0.00 0.00 0.00 0.00 0.00 0.00 0.00 0.00 0.00 0.00 0.00 0.00 0.00 0.00 0.00 0.00 0.00 0.00 0.00 0.00 0.00 0.00 0.00
0.00 0.00 0.00 0.00 0.00 0.00 0.00 0.00 0.00 0.00 0.00 0.00 0.00 0.00 0.00 0.00 0.00 0.00 0.00 0.00 0.00 0.00 0.00 0.00 0.00 0.00 0.00 0.00 0.00 0.00 0.00 0.00 0.00 0.00 0.00 0.00 0.00 0.00 0.00 0.00 0.00 0.00 0.00 0.00
0.01 0.00 0.00 0.00 0.00 0.00 0.00 0.00 0.00 0.00 0.00 0.00 0.00 0.00 0.00 0.00 0.00 0.00 0.00 0.00 0.00 0.00 0.00 0.00 0.00 0.00 0.00 0.00 0.00 0.00 0.00 0.00 0.00 0.00 0.00 0.00 0.00 0.00 0.00 0.00 0.00 0.00 0.00 0.00
0.02 0.01 0.00 0.00 0.00 0.00 0.00 0.00 0.00 0.00 0.00 0.00 0.00 0.00 0.00 0.00 0.00 0.00 0.00 0.00 0.00 0.00 0.00 0.00 0.00 0.00 0.00 0.00 0.00 0.00 0.00 0.00 0.00 0.00 0.00 0.00 0.00 0.00 0.00 0.00 0.00 0.00 0.00 0.00
0.02 0.02 0.01 0.00 0.00 0.00 0.00 0.00 0.00 0.00 0.00 0.00 0.00 0.00 0.00 0.00 0.00 0.00 0.00 0.00 0.00 0.00 0.00 0.00 0.00 0.00 0.00 0.00 0.00 0.00 0.00 0.00 0.00 0.00 0.00 0.00 0.00 0.00 0.00 0.00 0.00 0.00 0.00 0.00
0.01 0.02 0.01 0.00 0.00 0.00 0.01 0.01 0.00 0.00 0.00 0.00 0.00 0.00 0.00 0.00 0.00 0.00 0.00 0.00 0.00 0.00 0.00 0.00 0.00 0.00 0.00 0.00 0.00 0.00 0.00 0.00 0.00 0.00 0.00 0.00 0.00 0.00 0.00 0.00 0.00 0.00 0.00 0.00
0.01 0.02 0.01 0.00 0.00 0.00 0.01 0.00 0.01 0.00 0.00 0.00 0.00 0.00 0.00 0.00 0.00 0.00 0.00 0.00 0.00 0.00 0.00 0.00 0.00 0.00 0.00 0.00 0.00 0.00 0.00 0.00 0.00 0.00 0.00 0.00 0.00 0.00 0.00 0.00 0.00 0.00 0.00 0.00
0.00 0.00 0.00 0.00 0.00 0.00 0.00 0.00 0.00 0.00 0.00 0.00 0.00 0.00 0.00 0.00 0.00 0.00 0.01 0.01 0.00 0.00 0.00 0.00 0.00 0.00 0.00 0.00 0.00 0.00 0.00 0.00 0.00 0.00 0.00 0.00 0.00 0.00 0.00 0.00 0.00 0.00 0.00 0.00
0.01 0.00 0.00 0.00 0.00 0.00 0.00 0.00 0.00 0.00 0.00 0.00 0.00 0.00 0.00 0.00 0.00 0.00 0.00 0.00 0.00 0.00 0.00 0.00 0.00 0.00 0.00 0.00 0.00 0.00 0.00 0.00 0.00 0.00 0.00 0.00 0.00 0.00 0.00 0.00 0.00 0.00 0.00 0.00
0.00 0.00 0.00 0.00 0.00 0.00 0.00 0.00 0.00 0.00 0.00 0.00 0.00 0.00 0.00 0.00 0.00 0.00 0.00 0.00 0.00 0.00 0.00 0.00 0.00 0.00 0.00 0.00 0.00 0.00 0.00 0.00 0.00 0.00 0.00 0.00 0.00 0.00 0.00 0.00 0.00 0.00 0.00 0.00
0.01 0.00 0.00 0.00 0.00 0.00 0.00 0.00 0.00 0.00 0.00 0.00 0.00 0.00 0.00 0.00 0.00 0.00 0.00 0.00 0.00 0.00 0.00 0.00 0.00 0.00 0.00 0.00 0.00 0.00 0.00 0.00 0.00 0.00 0.00 0.00 0.00 0.00 0.00 0.00 0.00 0.00 0.00 0.00
0.00 0.00 0.00 0.00 0.01 0.01 0.00 0.00 0.00 0.00 0.00 0.00 0.00 0.00 0.00 0.00 0.00 0.00 0.00 0.00 0.00 0.00 0.00 0.00 0.00 0.00 0.00 0.00 0.00 0.00 0.00 0.00 0.00 0.00 0.00 0.00 0.00 0.00 0.00 0.00 0.00 0.00 0.00 0.00
0.00 0.01 0.01 0.01 0.00 0.00 0.00 0.00 0.00 0.00 0.00 0.00 0.00 0.00 0.00 0.00 0.00 0.00 0.00 0.00 0.00 0.00 0.00 0.00 0.00 0.00 0.00 0.00 0.00 0.00 0.00 0.00 0.00 0.00 0.00 0.00 0.00 0.00 0.00 0.00 0.00 0.00 0.00 0.00
0.00 0.00 0.00 0.00 0.00 0.00 0.00 0.00 0.00 0.00 0.00 0.00 0.00 0.00 0.00 0.01 0.01 0.01 0.01 0.01 0.01 0.01 0.00 0.00 0.00 0.00 0.00 0.00 0.00 0.00 0.00 0.00 0.00 0.00 0.00 0.00 0.00 0.00 0.00 0.00 0.00 0.00 0.00 0.00
0.00 0.00 0.00 0.00 0.00 0.00 0.00 0.00 0.00 0.00 0.00 0.00 0.00 0.00 0.00 0.00 0.00 0.00 0.00 0.00 0.00 0.00 0.00 0.00 0.00 0.00 0.00 0.00 0.00 0.00 0.00 0.00 0.00 0.00 0.00 0.00 0.00 0.00 0.00 0.00 0.00 0.00 0.00 0.00
0.01 0.01 0.01 0.01 0.00 0.00 0.00 0.00 0.00 0.00 0.00 0.00 0.00 0.00 0.00 0.00 0.00 0.00 0.00 0.00 0.00 0.00 0.00 0.00 0.00 0.00 0.00 0.00 0.00 0.00 0.00 0.00 0.00 0.00 0.00 0.00 0.00 0.00 0.00 0.00 0.00 0.00 0.00 0.00
0.01 0.01 0.00 0.00 0.00 0.00 0.00 0.00 0.00 0.00 0.00 0.00 0.00 0.00 0.00 0.00 0.00 0.00 0.00 0.00 0.00 0.00 0.00 0.00 0.00 0.00 0.00 0.00 0.00 0.00 0.00 0.00 0.00 0.00 0.00 0.00 0.00 0.00 0.00 0.00 0.00 0.01 0.01 0.01
0.00 0.00 0.00 0.00 0.00 0.00 0.00 0.00 0.00 0.00 0.00 0.00 0.00 0.00 0.00 0.00 0.00 0.00 0.00 0.00 0.00 0.00 0.00 0.00 0.00 0.00 0.00 0.00 0.00 0.00 0.00 0.00 0.00 0.00 0.00 0.00 0.00 0.00 0.01 0.01 0.01 0.01 0.01 0.01
0.00 0.00 0.00 0.00 0.00 0.00 0.00 0.00 0.00 0.00 0.00 0.00 0.00 0.00 0.00 0.00 0.00 0.00 0.00 0.00 0.00 0.00 0.00 0.00 0.00 0.00 0.00 0.00 0.00 0.01 0.00 0.00 0.00 0.00 0.00 0.00 0.01 0.01 0.01 0.01 0.01 0.01 0.01 0.01
0.00 0.00 0.00 0.00 0.00 0.00 0.00 0.00 0.00 0.00 0.00 0.00 0.00 0.01 0.00 0.00 0.00 0.00 0.00 0.00 0.00 0.00 0.00 0.00 0.00 0.00 0.00 0.00 0.01 0.01 0.01 0.01 0.00 0.00 0.00 0.01 0.01 0.01 0.01 0.01 0.01 0.01 0.01 0.01
0.00 0.00 0.00 0.00 0.00 0.00 0.00 0.00 0.00 0.00 0.00 0.00 0.00 0.01 0.01 0.00 0.00 0.00 0.00 0.00 0.00 0.00 0.00 0.00 0.00 0.00 0.00 0.01 0.01 0.01 0.01 0.01 0.01 0.01 0.01 0.01 0.01 0.01 0.01 0.01 0.01 0.01 0.01 0.01
0.00 0.00 0.00 0.00 0.00 0.00 0.00 0.00 0.00 0.00 0.00 0.00 0.00 0.00 0.01 0.01 0.01 0.01 0.00 0.00 0.00 0.00 0.00 0.00 0.00 0.01 0.01 0.01 0.01 0.01 0.01 0.01 0.01 0.01 0.01 0.01 0.01 0.01 0.01 0.01 0.01 0.01 0.01 0.02
0.00 0.00 0.00 0.00 0.00 0.00 0.00 0.00 0.00 0.00 0.00 0.00 0.00 0.00 0.00 0.00 0.00 0.00 0.00 0.00 0.00 0.00 0.00 0.00 0.00 0.01 0.01 0.01 0.01 0.01 0.01 0.01 0.01 0.01 0.01 0.01 0.01 0.01 0.01 0.01 0.01 0.01 0.01 0.02
0.00 0.00 0.00 0.00 0.00 0.00 0.00 0.00 0.00 0.00 0.00 0.00 0.00 0.00 0.00 0.00 0.00 0.00 0.00 0.00 0.00 0.00 0.00 0.00 0.00 0.01 0.01 0.01 0.01 0.01 0.01 0.01 0.01 0.01 0.01 0.01 0.01 0.01 0.01 0.01 0.01 0.02 0.02 0.02
0.00 0.00 0.00 0.00 0.00 0.00 0.00 0.00 0.00 0.00 0.00 0.00 0.00 0.00 0.00 0.00 0.00 0.00 0.00 0.00 0.00 0.00 0.00 0.00 0.00 0.01 0.01 0.01 0.01 0.01 0.01 0.01 0.01 0.01 0.01 0.01 0.01 0.01 0.01 0.01 0.01 0.02 0.02 0.02
0.00 0.00 0.00 0.00 0.00 0.00 0.00 0.00 0.00 0.00 0.00 0.00 0.00 0.00 0.00 0.00 0.00 0.00 0.00 0.00 0.00 0.00 0.00 0.00 0.00 0.00 0.00 0.00 0.00 0.00 0.01 0.01 0.01 0.01 0.01 0.01 0.01 0.01 0.01 0.01 0.01 0.02 0.02 0.02
MSLP
1017.56 1017.11 1016.67 1016.25 1015.86 1015.52 1015.22 1014.97 1014.76 1014.61 1014.51 1014.46 1014.47 1014.54 1014.66 1014.83 1015.03 1015.25 1015.49 1015.73 1015.97 1016.21 1016.44 1016.69 1016.95 1017.24 1017.55 1017.88 1018.22 1018.55 1018.86 1019.12 1019.32 1019.46 1019.53 1019.55 1019.54 1019.52 1019.50 1019.50 1019.52 1019.56 1019.61 1019.64
1017.95 1017.50 1017.03 1016.57 1016.13 1015.73 1015.37 1015.06 1014.80 1014.61 1014.48 1014.42 1014.42 1014.50 1014.63 1014.82 1015.04 1015.29 1015.55 1015.82 1016.07 1016.32 1016.57 1016.82 1017.09 1017.37 1017.68 1018.00 1018.33 1018.64 1018.93 1019.17 1019.35 1019.47 1019.51 1019.51 1019.48 1019.42 1019.38 1019.34 1019.33 1019.33 1019.33 1019.32
1018.20 1017.73 1017.24 1016.75 1016.26 1015.81 1015.41 1015.06 1014.78 1014.58 1014.45 1014.40 1014.43 1014.54 1014.71 1014.93 1015.18 1015.46 1015.75 1016.03 1016.30 1016.55 1016.80 1017.05 1017.31 1017.59 1017.88 1018.19 1018.50 1018.79 1019.05 1019.27 1019.42 1019.51 1019.53 1019.50 1019.44 1019.36 1019.28 1019.21 1019.15 1019.11 1019.06 1019.00
1018.25 1017.77 1017.25 1016.73 1016.22 1015.75 1015.34 1014.99 1014.73 1014.55 1014.46 1014.47 1014.56 1014.72 1014.94 1015.21 1015.51 1015.81 1016.11 1016.39 1016.66 1016.90 1017.13 1017.36 1017.60 1017.85 1018.12 1018.40 1018.68 1018.95 1019.18 1019.36 1019.49 1019.55 1019.54 1019.49 1019.39 1019.28 1019.16 1019.05 1018.95 1018.86 1018.76 1018.65
1018.07 1017.58 1017.06 1016.54 1016.03 1015.58 1015.19 1014.89 1014.68 1014.57 1014.57 1014.65 1014.83 1015.07 1015.36 1015.68 1016.01 1016.33 1016.62 1016.89 1017.12 1017.33 1017.52 1017.71 1017.91 1018.12 1018.35 1018.59 1018.84 1019.07 1019.27 1019.43 1019.52 1019.55 1019.52 1019.43 1019.30 1019.15 1019.00 1018.84 1018.70 1018.56 1018.41 1018.25
1017.71 1017.23 1016.72 1016.21 1015.75 1015.34 1015.01 1014.79 1014.67 1014.67 1014.77 1014.96 1015.23 1015.56 1015.92 1016.28 1016.63 1016.95 1017.23 1017.46 1017.64 1017.79 1017.92 1018.05 1018.19 1018.35 1018.54 1018.74 1018.95 1019.14 1019.31 1019.43 1019.50 1019.49 1019.43 1019.30 1019.14 1018.95 1018.76 1018.56 1018.37 1018.19 1018.00 1017.80
1017.21 1016.75 1016.28 1015.83 1015.42 1015.09 1014.86 1014.74 1014.73 1014.84 1015.06 1015.36 1015.73 1016.14 1016.55 1016.94 1017.30 1017.60 1017.84 1018.02 1018.14 1018.23 1018.29 1018.36 1018.44 1018.54 1018.68 1018.83 1019.00 1019.16 1019.29 1019.38 1019.41 1019.37 1019.27 1019.11 1018.90 1018.68 1018.44 1018.20 1017.96 1017.74 1017.51 1017.28
1016.65 1016.23 1015.82 1015.44 1015.13 1014.90 1014.77 1014.76 1014.87 1015.09 1015.41 1015.80 1016.25 1016.71 1017.16 1017.57 1017.92 1018.19 1018.39 1018.51 1018.57 1018.59 1018.59 1018.60 1018.62 1018.68 1018.76 1018.88 1019.01 1019.13 1019.22 1019.27 1019.26 1019.18 1019.04 1018.84 1018.59 1018.32 1018.04 1017.76 1017.49 1017.23 1016.97 1016.72
1016.09 1015.73 1015.40 1015.12 1014.91 1014.79 1014.78 1014.87 1015.08 1015.38 1015.78 1016.23 1016.72 1017.21 1017.67 1018.08 1018.40 1018.65 1018.80 1018.88 1018.89 1018.86 1018.81 1018.77 1018.76 1018.77 1018.82 1018.89 1018.98 1019.06 1019.11 1019.12 1019.06 1018.94 1018.75 1018.51 1018.22 1017.91 1017.59 1017.28 1016.97 1016.68 1016.40 1016.13
1015.56 1015.28 1015.06 1014.89 1014.79 1014.78 1014.87 1015.05 1015.33 1015.70 1016.13 1016.61 1017.11 1017.59 1018.04 1018.42 1018.72 1018.94 1019.06 1019.11 1019.09 1019.03 1018.96 1018.89 1018.85 1018.83 1018.85 1018.89 1018.93 1018.97 1018.97 1018.93 1018.82 1018.65 1018.42 1018.13 1017.81 1017.46 1017.11 1016.77 1016.44 1016.12 1015.82 1015.53
1015.07 1014.89 1014.78 1014.73 1014.76 1014.86 1015.03 1015.29 1015.61 1016.00 1016.44 1016.91 1017.38 1017.83 1018.25 1018.60 1018.87 1019.06 1019.17 1019.20 1019.18 1019.12 1019.04 1018.97 1018.91 1018.87 1018.86 1018.86 1018.86 1018.85 1018.80 1018.70 1018.54 1018.32 1018.04 1017.72 1017.37 1016.99 1016.62 1016.25 1015.91 1015.57 1015.26 1014.95
1014.61 1014.54 1014.56 1014.64 1014.78 1014.98 1015.23 1015.53 1015.88 1016.27 1016.68 1017.11 1017.54 1017.94 1018.31 1018.63 1018.87 1019.05 1019.15 1019.19 1019.18 1019.13 1019.06 1018.99 1018.92 1018.87 1018.83 1018.80 1018.75 1018.68 1018.58 1018.42 1018.21 1017.95 1017.63 1017.28 1016.91 1016.52 1016.13 1015.76 1015.40 1015.05 1014.72 1014.39
1014.15 1014.21 1014.35 1014.55 1014.81 1015.10 1015.42 1015.76 1016.12 1016.49 1016.86 1017.24 1017.61 1017.96 1018.28 1018.55 1018.78 1018.94 1019.05 1019.10 1019.10 1019.07 1019.02 1018.95 1018.87 1018.80 1018.73 1018.65 1018.55 1018.43 1018.27 1018.07 1017.82 1017.52 1017.18 1016.82 1016.43 1016.04 1015.65 1015.28 1014.91 1014.56 1014.22 1013.87
1013.70 1013.88 1014.14 1014.47 1014.83 1015.21 1015.59 1015.96 1016.31 1016.66 1016.99 1017.31 1017.62 1017.92 1018.19 1018.42 1018.62 1018.78 1018.89 1018.94 1018.96 1018.93 1018.88 1018.81 1018.72 1018.62 1018.51 1018.39 1018.24 1018.07 1017.87 1017.63 1017.35 1017.03 1016.69 1016.32 1015.94 1015.56 1015.18 1014.81 1014.45 1014.09 1013.73 1013.37
1013.27 1013.56 1013.94 1014.38 1014.84 1015.29 1015.72 1016.11 1016.46 1016.78 1017.07 1017.35 1017.60 1017.84 1018.06 1018.26 1018.44 1018.57 1018.67 1018.72 1018.73 1018.70 1018.63 1018.54 1018.42 1018.29 1018.14 1017.97 1017.78 1017.58 1017.34 1017.08 1016.79 1016.47 1016.14 1015.78 1015.42 1015.06 1014.70 1014.34 1013.99 1013.63 1013.26 1012.88
1012.91 1013.30 1013.78 1014.32 1014.85 1015.36 1015.83 1016.23 1016.58 1016.88 1017.14 1017.36 1017.57 1017.76 1017.93 1018.09 1018.22 1018.32 1018.39 1018.42 1018.40 1018.34 1018.24 1018.11 1017.96 1017.78 1017.59 1017.39 1017.17 1016.94 1016.69 1016.43 1016.14 1015.84 1015.53 1015.20 1014.87 1014.53 1014.19 1013.84 1013.49 1013.13 1012.76 1012.37
1012.67 1013.15 1013.72 1014.32 1014.91 1015.45 1015.94 1016.35 1016.68 1016.96 1017.18 1017.36 1017.52 1017.66 1017.78 1017.89 1017.97 1018.03 1018.05 1018.02 1017.96 1017.85 1017.71 1017.53 1017.33 1017.11 1016.89 1016.66 1016.42 1016.18 1015.94 1015.69 1015.43 1015.16 1014.87 1014.57 1014.27 1013.95 1013.63 1013.29 1012.94 1012.58 1012.21 1011.82
1012.62 1013.17 1013.79 1014.43 1015.04 1015.60 1016.08 1016.47 1016.78 1017.02 1017.21 1017.35 1017.46 1017.55 1017.62 1017.67 1017.69 1017.68 1017.64 1017.55 1017.42 1017.25 1017.04 1016.81 1016.57 1016.31 1016.06 1015.81 1015.58 1015.35 1015.12 1014.89 1014.66 1014.42 1014.17 1013.90 1013.61 1013.31 1012.99 1012.66 1012.31 1011.95 1011.58 1011.19
1012.81 1013.40 1014.04 1014.68 1015.28 1015.81 1016.26 1016.61 1016.89 1017.09 1017.23 1017.32 1017.38 1017.41 1017.43 1017.41 1017.37 1017.29 1017.17 1017.01 1016.80 1016.56 1016.30 1016.01 1015.72 1015.44 1015.17 1014.92 1014.69 1014.47 1014.27 1014.07 1013.87 1013.66 1013.43 1013.17 1012.89 1012.59 1012.27 1011.93 1011.58 1011.22 1010.85 1010.48
1013.23 1013.84 1014.46 1015.07 1015.62 1016.09 1016.48 1016.77 1016.99 1017.13 1017.22 1017.26 1017.27 1017.25 1017.21 1017.13 1017.02 1016.86 1016.67 1016.44 1016.16 1015.85 1015.53 1015.20 1014.87 1014.57 1014.29 1014.04 1013.82 1013.62 1013.44 1013.26 1013.08 1012.88 1012.66 1012.40 1012.12 1011.80 1011.47 1011.12 1010.75 1010.39 1010.03 1009.67
1013.83 1014.42 1015.01 1015.55 1016.02 1016.41 1016.71 1016.93 1017.07 1017.15 1017.18 1017.17 1017.13 1017.06 1016.96 1016.82 1016.65 1016.43 1016.18 1015.87 1015.53 1015.17 1014.80 1014.42 1014.07 1013.74 1013.45 1013.21 1012.99 1012.80 1012.63 1012.47 1012.29 1012.09 1011.86 1011.59 1011.29 1010.95 1010.59 1010.22 1009.85 1009.48 1009.13 1008.80
1014.53 1015.08 1015.60 1016.05 1016.42 1016.71 1016.91 1017.04 1017.11 1017.12 1017.10 1017.04 1016.95 1016.84 1016.69 1016.51 1016.29 1016.02 1015.71 1015.35 1014.96 1014.55 1014.14 1013.73 1013.35 1013.01 1012.71 1012.45 1012.23 1012.04 1011.86 1011.69 1011.50 1011.28 1011.03 1010.74 1010.41 1010.05 1009.67 1009.29 1008.90 1008.53 1008.19 1007.88
1015.22 1015.71 1016.14 1016.50 1016.76 1016.94 1017.05 1017.09 1017.09 1017.04 1016.96 1016.86 1016.74 1016.59 1016.42 1016.20 1015.94 1015.64 1015.28 1014.89 1014.46 1014.01 1013.57 1013.13 1012.72 1012.36 1012.03 1011.76 1011.52 1011.31 1011.11 1010.92 1010.70 1010.46 1010.19 1009.87 1009.52 1009.14 1008.74 1008.34 1007.96 1007.60 1007.27 1006.98
1015.81 1016.23 1016.57 1016.82 1016.98 1017.07 1017.09 1017.05 1016.98 1016.88 1016.77 1016.64 1016.49 1016.33 1016.13 1015.89 1015.61 1015.28 1014.90 1014.48 1014.02 1013.55 1013.07 1012.60 1012.17 1011.77 1011.41 1011.11 1010.84 1010.59 1010.37 1010.14 1009.89 1009.63 1009.33 1008.99 1008.62 1008.24 1007.84 1007.44 1007.07 1006.72 1006.41 1006.14
1016.24 1016.58 1016.83 1016.99 1017.06 1017.06 1017.01 1016.92 1016.80 1016.67 1016.53 1016.38 1016.22 1016.04 1015.83 1015.58 1015.29 1014.94 1014.54 1014.10 1013.62 1013.12 1012.61 1012.12 1011.65 1011.21 1010.82 1010.47 1010.16 1009.88 1009.61 1009.35 1009.08 1008.79 1008.47 1008.13 1007.77 1007.39 1007.00 1006.62 1006.27 1005.93 1005.64 1005.38
1016.49 1016.75 1016.92 1017.00 1017.01 1016.95 1016.84 1016.71 1016.56 1016.40 1016.25 1016.09 1015.92 1015.73 1015.52 1015.26 1014.95 1014.60 1014.18 1013.72 1013.22 1012.70 1012.17 1011.64 1011.13 1010.66 1010.23 1009.84 1009.48 1009.16 1008.86 1008.57 1008.28 1007.97 1007.66 1007.32 1006.98 1006.62 1006.27 1005.92 1005.59 1005.28 1005.00 1004.75
1016.59 1016.78 1016.89 1016.91 1016.86 1016.75 1016.62 1016.46 1016.29 1016.12 1015.95 1015.78 1015.60 1015.41 1015.18 1014.92 1014.60 1014.23 1013.80 1013.33 1012.81 1012.27 1011.71 1011.16 1010.62 1010.11 1009.64 1009.21 1008.82 1008.47 1008.14 1007.83 1007.53 1007.23 1006.92 1006.61 1006.30 1005.98 1005.66 1005.35 1005.05 1004.76 1004.49 1004.24
Thickness
5541 5540 5536 5539 5542 5539 5537 5547 5551 5560 5557 5565 5564 5560 5557 5554 5551 5549 5547 5545 5543 5542 5541 5538 5536 5534 5532 5530 5528 5526 5525 5524 5523 5521 5519 5518 5516 5514 5512 5509 5507 5505 5503 5501
5531 5533 5531 5533 5542 5540 5539 5541 5545 5549 5554 5562 5557 5551 5549 5547 5545 5543 5542 5540 5537 5535 5533 5531 5529 5526 5523 5522 5520 5518 5517 5516 5514 5512 5511 5509 5507 5505 5503 5501 5498 5496 5493 5491
5537 5530 5529 5544 5553 5546 5542 5544 5545 5548 5557 5553 5547 5543 5543 5542 5539 5537 5535 5533 5530 5528 5526 5523 5521 5518 5516 5513 5511 5509 5508 5507 5505 5503 5501 5500 5497 5496 5494 5492 5489 5487 5484 5482
5524 5525 5529 5559 5545 5544 5542 5542 5540 5543 5545 5543 5540 5538 5535 5534 5532 5531 5528 5525 5522 5520 5517 5514 5511 5508 5505 5503 5501 5500 5499 5497 5495 5493 5492 5490 5488 5486 5484 5482 5479 5477 5475 5472
5513 5524 5540 5548 5538 5531 5532 5539 5538 5535 5535 5532 5527 5526 5529 5525 5522 5521 5518 5516 5513 5510 5507 5504 5501 5498 5495 5493 5492 5490 5489 5488 5485 5483 5482 5480 5478 5476 5474 5472 5470 5467 5465 5463
5504 5509 5528 5545 5529 5522 5523 5533 5533 5527 5526 5522 5516 5523 5528 5519 5512 5509 5506 5504 5501 5498 5495 5493 5491 5487 5484 5484 5483 5482 5480 5477 5475 5473 5471 5470 5468 5466 5463 5461 5459 5457 5454 5453
5496 5501 5524 5529 5514 5510 5519 5532 5521 5516 5515 5511 5510 5515 5512 5504 5500 5497 5494 5491 5488 5486 5485 5483 5479 5475 5475 5474 5473 5471 5468 5466 5464 5463 5461 5459 5457 5455 5452 5450 5448 5447 5445 5443
5490 5490 5512 5513 5503 5509 5519 5512 5508 5505 5504 5501 5500 5497 5493 5491 5488 5485 5482 5479 5476 5474 5473 5471 5467 5465 5465 5465 5463 5460 5457 5455 5454 5452 5450 5448 5446 5444 5442 5440 5438 5437 5435 5433
5499 5511 5511 5503 5504 5503 5498 5497 5496 5494 5492 5489 5486 5485 5483 5480 5478 5475 5471 5468 5465 5463 5462 5460 5457 5455 5455 5454 5451 5449 5447 5445 5444 5441 5440 5437 5435 5433 5431 5429 5428 5427 5425 5424
5482 5495 5495 5490 5489 5486 5483 5482 5482 5480 5477 5475 5474 5474 5472 5469 5467 5464 5461 5457 5454 5452 5452 5451 5448 5445 5444 5442 5439 5438 5437 5435 5433 5431 5429 5427 5425 5423 5421 5420 5418 5416 5415 5413
5473 5482 5479 5481 5479 5478 5474 5471 5468 5467 5465 5463 5462 5461 5460 5459 5456 5453 5449 5446 5443 5441 5441 5440 5438 5435 5433 5430 5428 5427 5426 5424 5422 5420 5418 5416 5414 5413 5411 5410 5407 5405 5404 5401
5478 5480 5474 5478 5474 5468 5463 5461 5459 5456 5455 5452 5449 5449 5448 5446 5445 5441 5438 5435 5432 5431 5429 5428 5426 5425 5422 5419 5417 5415 5415 5414 5412 5409 5407 5405 5404 5402 5400 5396 5395 5391 5389 5387
5469 5466 5463 5463 5457 5453 5451 5449 5447 5444 5443 5441 5439 5437 5435 5434 5432 5429 5426 5424 5422 5421 5419 5417 5415 5414 5411 5408 5406 5404 5403 5402 5400 5397 5395 5393 5391 5390 5390 5388 5384 5381 5379 5377
5450 5446 5445 5446 5443 5440 5438 5435 5433 5431 5430 5428 5427 5424 5422 5420 5418 5416 5415 5413 5411 5409 5407 5405 5404 5403 5401 5398 5395 5393 5392 5390 5387 5386 5384 5381 5379 5377 5376 5375 5375 5374 5370 5367
5437 5433 5435 5434 5430 5426 5423 5421 5419 5419 5418 5416 5414 5411 5409 5408 5407 5406 5404 5401 5398 5396 5395 5394 5393 5392 5390 5387 5384 5382 5381 5380 5377 5375 5372 5369 5367 5365 5363 5362 5362 5361 5360 5358
5424 5421 5419 5417 5416 5414 5411 5408 5408 5409 5407 5405 5403 5400 5399 5397 5395 5394 5392 5389 5387 5387 5385 5383 5382 5381 5378 5375 5373 5371 5370 5367 5364 5363 5361 5358 5356 5354 5352 5351 5350 5349 5348 5347
5410 5410 5408 5405 5405 5403 5400 5398 5397 5396 5394 5393 5391 5389 5386 5384 5383 5383 5382 5379 5377 5376 5374 5372 5371 5369 5366 5363 5361 5360 5359 5357 5353 5351 5350 5348 5345 5344 5342 5340 5339 5338 5338 5336
5402 5401 5398 5396 5394 5391 5389 5386 5384 5383 5382 5381 5378 5376 5374 5373 5373 5373 5371 5368 5366 5364 5364 5362 5360 5358 5355 5353 5350 5349 5347 5346 5343 5341 5339 5336 5335 5333 5331 5330 5329 5327 5327 5326
5386 5384 5383 5381 5379 5378 5376 5374 5373 5371 5369 5367 5365 5364 5363 5362 5361 5360 5358 5356 5354 5355 5356 5353 5350 5347 5345 5342 5339 5337 5336 5334 5332 5330 5327 5326 5324 5323 5321 5320 5319 5318 5317 5316
5372 5370 5369 5368 5366 5364 5363 5362 5360 5359 5357 5355 5353 5352 5352 5351 5349 5347 5346 5345 5346 5346 5344 5342 5339 5337 5335 5332 5329 5327 5326 5324 5322 5320 5318 5316 5315 5314 5313 5311 5310 5309 5309 5308
5359 5357 5356 5355 5354 5353 5352 5350 5348 5347 5346 5343 5342 5342 5341 5340 5338 5336 5334 5337 5338 5334 5332 5331 5329 5327 5325 5322 5320 5318 5316 5314 5312 5311 5309 5308 5307 5306 5305 5304 5303 5302 5302 5301
5346 5345 5345 5344 5343 5342 5341 5339 5337 5336 5335 5333 5331 5330 5328 5328 5327 5326 5325 5325 5326 5324 5322 5321 5319 5317 5315 5313 5311 5309 5307 5305 5304 5303 5301 5301 5300 5299 5298 5297 5296 5296 5295 5295
5336 5335 5334 5332 5331 5330 5329 5328 5326 5325 5324 5323 5321 5320 5319 5319 5319 5317 5319 5319 5315 5314 5312 5312 5310 5308 5306 5304 5303 5302 5300 5298 5297 5296 5295 5294 5293 5293 5292 5291 5291 5290 5290 5289
5324 5323 5322 5320 5318 5317 5317 5319 5316 5314 5313 5312 5312 5310 5309 5309 5310 5309 5308 5308 5306 5304 5304 5304 5302 5300 5298 5297 5296 5295 5293 5292 5290 5289 5288 5288 5287 5287 5286 5286 5285 5285 5285 5284
5312 5311 5310 5308 5307 5309 5309 5308 5306 5305 5304 5304 5304 5303 5300 5299 5299 5301 5299 5298 5296 5295 5295 5295 5294 5292 5291 5290 5288 5287 5286 5285 5284 5283 5282 5282 5281 5281 5281 5280 5280 5280 5280 5279
5302 5302 5302 5301 5300 5299 5299 5298 5297 5298 5297 5297 5297 5296 5294 5291 5290 5289 5289 5288 5287 5287 5286 5286 5285 5284 5283 5282 5281 5280 5279 5278 5278 5277 5277 5277 5276 5276 5276 5276 5275 5275 5275 5275
5292 5291 5290 5290 5291 5289 5288 5287 5287 5288 5287 5287 5287 5287 5285 5283 5282 5281 5280 5280 5279 5279 5278 5278 5277 5277 5276 5275 5274 5273 5272 5272 5272 5272 5271 5271 5271 5271 5271 5271 5271 5271 5271 5271